This is the latest recevied weather packets stored in our database for station/object W2IRT. If no packets are shown the sender has not sent any weather packets the latest 1 day(s).
| Time | Temp. | Humidity | Pressure | Rain* | Wind** | Luminosity | Snow |
|---|---|---|---|---|---|---|---|
| 1778035217 | 22.78° C | 49% | 1009.1 hPa | 0 mm | - | - | - |
| 1778034917 | 22.78° C | 48% | 1009.2 hPa | 0 mm | - | - | - |
| 1778034317 | 23.33° C | 47% | 1009.2 hPa | 0 mm | - | - | - |
| 1778033716 | 23.89° C | 44% | 1009 hPa | 0 mm | - | - | - |
| 1778033417 | 23.89° C | 44% | 1009.1 hPa | 0 mm | - | - | - |
| 1778033117 | 23.89° C | 43% | 1008.9 hPa | 0 mm | - | - | - |
| 1778031617 | 24.44° C | 40% | 1008.9 hPa | 0 mm | - | - | - |
| 1778030716 | 25° C | 38% | 1008.6 hPa | 0 mm | - | - | - |
| 1778030416 | 25° C | 38% | 1008.6 hPa | 0 mm | - | - | - |
| 1778030117 | 25° C | 38% | 1008.5 hPa | 0 mm | - | - | - |
| 1778029816 | 25° C | 37% | 1008.5 hPa | 0 mm | - | - | - |
| 1778028616 | 25.56° C | 36% | 1008.3 hPa | 0 mm | - | - | - |
| 1778028016 | 25.56° C | 35% | 1008.2 hPa | 0 mm | - | - | - |
| 1778027716 | 25.56° C | 34% | 1008.1 hPa | 0 mm | - | - | - |
| 1778027116 | 26.11° C | 33% | 1008 hPa | 0 mm | - | - | - |
| 1778026816 | 26.11° C | 32% | 1007.9 hPa | 0 mm | - | - | - |
| 1778023516 | 26.67° C | 28% | 1007.6 hPa | 0 mm | - | - | - |
| 1778022616 | 27.22° C | 27% | 1007.5 hPa | 0 mm | - | - | - |
| 1778019016 | 27.78° C | 25% | 1006.9 hPa | 0 mm | - | - | - |
| 1778016916 | 28.33° C | 26% | 1006.5 hPa | 0 mm | - | - | - |
| 1778016016 | 28.89° C | 25% | 1006.5 hPa | 0 mm | - | - | - |
| 1778015716 | 28.89° C | 26% | 1006.5 hPa | 0 mm | - | - | - |
| 1778015416 | 28.89° C | 27% | 1006.4 hPa | 0 mm | - | - | - |
| 1778014816 | 28.89° C | 26% | 1006.5 hPa | 0 mm | - | - | - |
| 1778014216 | 28.89° C | 26% | 1006.6 hPa | 0 mm | - | - | - |
* Rain latest hour (hover to see other rain measurements)
** Current wind speed in m/s (hover to see current wind gust speed)